Location: Ferchesar
(52.6477°N, 12.4298°E)
Time: 18:23:11
(UTC+01:00)

Vanguard 2 Rocket - Pass Details

Date: 09 December 2021
Orbit: 553 x 3325 km, 32.9° (Epoch: 25 January)

Event Time Altitude Azimuth Distance (km) Brightness Sun altitude
Rises 20:22:15 0° 241° (WSW) 3,653 10.6 -38.9°
Reaches altitude 10° 20:25:58 10° 217° (SW) 3,118 9.8 -39.5°
Enters shadow 20:28:10 14° 200° (SSW) 3,087 9.6 -39.8°
